GEFSSE_850_meantemp_162.txt.gz
Temperature
22 21 21 20 19 19 18 18 18 18 18 17 17 17 17 17 17 17 16 16 16 16 16 16 16 15 15 15 15 15 15 15 14 14 14 14 14 14 14 14 13 13 13
22 21 20 19 19 18 18 18 18 18 17 17 17 17 17 17 16 16 16 16 16 16 15 15 15 15 15 15 15 15 15 14 14 14 14 13 13 13 13 13 13 13 13
21 20 19 19 18 18 18 17 17 17 17 17 17 17 17 16 16 16 16 16 15 15 15 15 15 15 15 15 14 14 14 14 14 14 13 12 12 13 13 13 13 13 13
20 19 18 18 18 17 17 17 17 17 17 17 17 17 16 16 16 16 15 15 15 15 15 15 15 14 14 14 14 14 14 14 13 13 12 12 12 12 12 12 12 12 12
19 18 18 17 17 17 17 17 17 17 17 17 16 16 16 16 16 15 15 15 15 15 15 14 14 14 14 14 14 14 13 13 13 12 12 11 11 12 12 11 12 12 12
19 18 17 17 17 16 16 17 17 17 17 16 16 16 16 16 15 15 15 15 15 15 14 14 14 13 13 13 13 13 13 13 12 11 11 11 11 11 11 11 11 11 11
18 17 17 17 16 16 16 16 16 16 16 16 16 16 16 15 15 15 15 15 14 14 14 14 13 13 13 13 13 13 12 12 11 11 11 11 11 11 11 11 11 11 11
17 17 16 16 16 16 16 16 16 16 16 16 16 16 15 15 15 15 15 14 14 14 13 13 13 13 12 12 12 12 12 12 11 11 11 11 11 11 11 11 11 11 11
16 16 16 16 16 16 16 16 16 16 16 16 15 15 15 15 15 14 14 14 14 13 13 13 12 12 12 12 12 12 12 11 11 11 10 10 10 10 10 10 10 10 10
15 15 16 16 16 16 16 16 16 16 15 15 15 15 15 14 14 14 14 13 13 13 12 12 12 12 12 12 12 12 11 11 10 10 10 10 10 10 10 10 10 10 10
15 15 15 15 16 16 15 15 15 15 15 15 15 14 14 14 13 13 13 13 12 12 12 12 12 12 12 12 11 11 11 10 10 10 10 10 10 10 10 10 10 10 10
15 15 15 15 15 15 15 15 15 15 15 14 14 14 14 13 13 12 12 12 12 12 12 11 11 11 11 11 11 11 10 10 10 10 10 10 10 9 9 9 10 9 10
15 15 15 15 15 15 15 15 15 15 14 14 14 14 13 13 13 12 12 11 11 11 11 11 11 11 10 11 11 10 10 10 10 9 9 10 9 9 9 9 9 9 9
15 15 15 15 15 15 15 15 15 15 14 14 14 13 13 13 12 12 12 11 11 11 11 11 11 11 10 10 10 10 10 10 10 9 9 9 9 9 9 9 9 9 9
14 14 15 15 15 15 15 15 15 14 14 14 14 13 13 13 13 12 12 11 11 11 11 11 11 10 10 10 10 10 10 9 9 9 9 9 9 9 9 9 9 9 9
14 14 14 14 15 15 15 15 14 14 14 14 14 13 13 13 13 12 12 11 11 11 11 11 10 10 10 10 10 9 9 9 9 9 9 9 9 9 9 9 9 8 8
14 14 14 14 14 15 15 15 14 14 14 14 14 13 13 13 13 12 12 11 11 11 11 10 10 10 10 10 9 9 9 9 9 9 9 9 9 9 9 9 8 8 8
13 13 14 14 14 14 14 14 14 14 14 14 14 13 13 13 12 12 12 12 11 11 11 10 10 10 10 9 9 9 9 9 9 9 9 9 9 9 9 9 9 9 8
13 13 13 14 14 14 14 14 14 14 14 14 13 13 13 12 12 12 12 11 11 11 11 10 10 10 9 9 9 9 9 9 9 9 9 9 9 9 9 9 9 9 9
13 13 13 13 13 14 14 14 14 14 14 13 13 13 13 12 12 12 12 11 11 11 11 10 10 10 9 9 9 9 9 9 9 9 9 9 9 9 9 9 9 9 9
12 13 13 13 13 13 13 13 13 13 13 13 13 13 13 12 12 12 12 11 11 11 11 10 10 9 9 9 8 8 8 9 9 9 9 9 9 9 9 9 9 9 9
12 12 13 13 13 13 13 13 13 13 13 13 13 13 12 12 12 12 12 11 11 11 10 10 10 9 9 9 8 8 9 9 9 9 9 9 9 9 9 9 9 9 9
11 12 12 13 13 13 13 13 13 13 13 13 13 13 12 12 12 12 12 11 11 11 11 10 10 10 9 9 9 9 9 10 9 9 10 10 9 9 9 9 9 9 9
11 12 12 12 13 13 13 13 13 13 12 12 13 12 12 12 12 12 12 12 11 11 11 11 10 10 9 9 9 9 9 9 9 9 9 10 9 9 9 9 9 9 9
11 11 12 12 12 12 12 12 12 12 12 12 12 12 12 12 12 12 12 11 11 11 11 11 10 10 10 9 9 9 9 9 9 9 9 9 9 9 9 9 9 9 9
10 11 11 11 12 12 12 12 12 12 12 12 12 12 12 12 12 12 12 12 11 11 11 11 11 10 10 9 9 9 9 9 9 9 9 9 9 9 9 9 9 9 9

GEFSSE_850_meantemp_168.txt.gz
Temperature
22 23 22 21 21 20 20 19 19 19 19 19 19 18 18 18 18 18 17 17 17 16 16 16 16 16 16 16 16 15 15 15 15 15 14 14 14 14 13 13 14 14 14
22 22 22 21 20 20 19 19 19 19 19 18 18 18 18 18 17 17 17 17 16 16 16 16 16 16 15 15 15 15 15 15 14 14 14 14 13 13 13 13 13 13 13
22 21 21 20 19 19 19 19 18 18 18 18 18 18 17 17 17 17 17 16 16 16 16 15 15 15 15 15 15 15 15 14 14 13 13 13 13 13 13 13 13 13 13
21 21 20 19 19 18 18 18 18 18 18 18 17 17 17 17 17 16 16 16 16 15 15 15 15 15 15 15 15 15 14 13 13 12 12 12 13 13 13 12 12 12 12
20 20 20 19 18 18 17 17 17 17 17 17 17 17 17 16 16 16 16 16 15 15 15 15 15 14 15 15 14 14 14 13 12 12 12 12 12 12 12 12 12 12 12
19 19 19 18 18 17 17 17 17 17 17 17 17 17 16 16 16 16 15 15 15 15 15 15 14 15 14 14 14 14 13 12 12 12 12 12 12 12 12 12 12 12 12
19 19 18 18 17 17 17 17 17 17 17 17 16 16 16 16 16 15 15 15 15 15 14 14 14 14 14 14 14 13 13 12 12 12 12 12 12 11 11 11 12 11 11
19 18 18 18 17 17 17 17 16 16 16 16 16 16 16 16 15 15 15 15 15 14 14 14 14 14 14 14 13 13 12 12 11 11 12 12 11 11 11 11 11 11 11
18 18 17 17 17 17 16 16 16 16 16 16 16 16 16 15 15 15 15 14 14 14 14 14 13 13 13 13 13 13 12 12 11 11 11 11 11 11 11 11 11 11 11
17 17 17 17 16 16 16 16 16 16 16 16 16 16 15 15 15 15 14 14 14 13 13 13 13 13 13 13 13 12 12 11 11 11 11 11 11 10 10 10 11 11 11
17 17 17 16 16 16 16 16 16 16 16 16 16 15 15 15 14 14 14 14 13 13 13 13 13 13 13 13 12 12 11 11 11 11 11 11 10 10 10 10 10 10 10
16 16 16 16 16 16 16 16 16 16 16 15 15 15 15 14 14 14 14 13 13 13 12 12 12 12 12 12 12 11 11 11 11 11 11 11 10 10 10 10 10 10 10
15 15 16 16 15 15 15 16 15 15 15 15 15 15 15 14 14 13 13 13 13 12 12 12 12 12 12 12 12 11 11 11 10 11 11 10 10 10 10 10 10 10 10
14 15 15 15 15 15 15 15 15 15 15 15 15 15 14 14 13 13 13 13 12 12 12 12 12 11 11 11 11 11 11 10 10 10 10 10 10 10 10 10 10 10 10
14 14 15 15 15 15 15 15 15 15 15 15 15 14 14 14 14 13 13 13 12 12 12 12 11 11 11 11 11 11 10 10 10 10 10 10 10 10 10 10 9 9 9
13 14 14 14 14 14 14 14 15 15 15 14 14 14 14 14 14 13 13 12 12 12 11 11 11 11 11 11 10 10 10 10 10 10 10 10 10 10 10 9 9 9 9
13 13 13 14 14 14 14 14 14 14 14 14 14 14 14 14 14 13 13 12 12 12 11 11 11 10 10 10 10 10 10 10 10 10 10 10 10 10 9 9 9 9 9
12 13 13 13 13 13 14 14 14 14 14 14 14 14 14 14 13 13 13 12 12 11 11 11 11 10 10 10 10 10 10 10 10 10 10 10 10 10 10 10 10 10 9
12 12 12 13 13 13 13 13 13 14 14 14 14 14 14 14 13 13 13 13 12 11 11 11 11 11 11 10 10 10 10 10 10 10 10 9 9 10 10 10 10 10 10
11 12 12 12 12 12 13 13 13 13 13 14 13 13 13 13 13 13 13 12 12 11 11 11 11 10 10 10 10 10 10 10 10 10 10 9 9 10 10 10 10 10 10
11 11 11 11 11 12 12 12 13 13 13 13 13 13 13 13 13 13 13 12 12 12 11 11 11 10 10 10 9 9 9 9 10 10 10 10 10 10 10 10 10 10 10
10 10 10 11 11 11 12 12 12 13 13 13 13 13 13 13 13 13 13 13 12 12 11 11 11 10 10 10 10 9 9 9 9 9 10 10 10 10 10 10 10 10 10
10 10 10 10 11 11 11 12 12 12 12 12 13 13 13 13 13 13 13 13 12 12 12 11 11 11 10 10 10 10 9 9 10 10 10 10 10 10 10 10 10 10 10
9 9 9 10 10 11 11 11 12 12 12 12 12 13 12 12 13 13 13 13 12 12 12 11 11 11 11 10 10 10 10 10 10 9 10 10 10 10 10 10 10 10 10
8 9 9 9 10 11 11 11 12 12 12 12 12 12 12 12 12 13 13 12 12 12 12 11 11 11 11 11 11 10 10 10 11 10 10 10 10 10 10 10 10 10 10
8 8 9 9 10 10 10 11 11 12 12 12 12 12 12 12 12 12 12 12 12 12 12 12 12 11 11 11 11 11 11 11 11 11 10 10 10 10 10 10 10 10 10

GEFSSE_850_meantemp_174.txt.gz
Temperature
21 21 20 20 20 20 20 20 20 20 19 19 19 19 18 18 18 18 18 17 17 17 17 16 16 16 16 16 16 15 15 15 15 15 14 14 14 14 14 14 14 14 14
21 21 20 19 19 19 19 19 19 19 19 19 19 19 18 18 18 18 17 17 17 17 16 16 16 16 16 16 15 15 15 15 15 14 14 14 14 14 14 14 14 13 13
21 20 20 19 19 19 19 19 19 19 19 19 18 18 18 18 18 17 17 17 17 16 16 16 16 16 16 15 15 15 15 15 14 14 14 14 13 13 13 13 13 13 13
20 20 19 19 18 18 18 18 18 18 18 18 18 18 18 18 17 17 17 16 16 16 16 16 15 15 15 15 15 14 14 14 14 14 14 13 13 13 13 13 13 13 13
19 19 19 18 18 18 17 17 18 18 18 18 18 18 17 17 17 17 16 16 16 16 16 15 15 15 15 15 14 14 14 14 14 13 13 13 13 12 12 12 12 12 12
18 18 18 18 18 17 17 17 17 17 17 17 17 17 17 17 17 16 16 16 16 16 15 15 15 15 15 14 14 14 13 13 13 13 13 12 12 12 12 12 12 12 12
18 17 17 17 17 17 17 17 17 17 17 17 17 17 16 16 16 16 16 16 15 15 15 15 15 15 14 14 14 13 13 13 13 13 12 12 12 12 12 12 12 12 12
17 17 17 17 17 17 17 17 17 17 17 17 16 16 16 16 16 16 16 16 15 15 15 15 15 15 14 14 13 13 13 13 12 12 12 12 12 12 12 12 12 12 11
16 16 16 16 16 16 16 16 16 16 16 16 16 16 16 16 16 16 16 15 15 15 15 15 15 14 14 13 13 13 13 12 12 12 12 12 11 11 11 11 11 11 11
16 15 15 16 16 16 16 16 16 16 16 16 16 16 16 16 16 15 15 15 15 15 15 15 14 14 14 13 13 12 12 12 12 12 12 11 11 11 11 11 11 11 11
15 15 15 15 15 15 15 16 16 16 16 16 16 16 15 15 15 15 15 15 15 14 14 14 14 14 13 13 12 12 12 12 12 12 11 11 11 11 11 11 11 11 11
14 14 14 14 14 15 15 15 15 15 15 15 15 15 15 15 15 15 15 15 14 14 14 14 14 13 13 13 12 12 12 12 11 11 11 11 11 11 11 11 11 11 11
13 13 14 14 14 14 14 14 15 15 15 15 15 15 15 15 15 14 14 14 14 14 14 13 13 13 13 12 12 12 12 11 11 11 11 11 11 11 11 11 11 10 10
12 12 13 13 13 13 13 14 14 14 14 14 14 14 14 14 14 14 14 14 14 14 14 13 13 13 12 12 12 12 11 11 11 11 11 11 11 10 10 10 10 10 10
11 12 12 12 13 13 13 13 13 14 14 14 14 14 14 14 14 14 14 14 14 14 13 13 13 13 12 12 12 11 11 11 11 11 11 11 11 10 10 10 10 10 10
11 11 11 12 12 12 12 13 13 13 13 14 14 14 14 14 14 14 14 14 14 14 13 13 13 13 12 12 12 11 11 11 11 11 11 11 10 10 10 10 10 10 9
10 10 11 11 11 12 12 12 13 13 13 13 13 14 13 14 14 14 14 14 14 13 13 13 12 12 12 11 11 11 11 11 11 11 11 10 10 10 10 10 10 9 9
10 10 10 11 11 11 11 12 12 12 12 13 13 13 13 13 13 14 14 14 14 13 13 13 12 12 12 11 11 11 11 11 11 11 10 10 10 10 10 10 10 9 9
9 9 9 10 10 10 11 11 11 11 12 12 12 13 13 13 13 13 13 14 13 13 13 13 12 12 11 11 11 11 10 10 10 10 10 10 10 10 10 10 10 10 9
9 9 9 10 10 10 10 11 11 11 11 11 12 12 12 12 13 13 13 13 13 13 13 12 12 11 11 11 11 10 10 10 10 10 10 10 10 10 10 10 10 10 10
8 8 9 9 9 9 10 10 10 10 11 11 11 12 12 12 12 13 13 13 13 13 13 12 12 11 11 10 10 10 10 10 10 10 10 10 10 10 10 10 10 10 10
8 8 8 8 9 9 9 9 9 10 10 11 11 11 11 12 12 12 12 12 13 12 12 12 12 11 10 10 10 9 9 9 10 10 10 10 10 10 10 10 10 10 10
7 7 8 8 8 8 9 9 9 9 9 10 10 10 11 11 12 12 12 12 13 13 12 12 12 12 11 10 10 10 10 10 10 10 10 10 10 10 10 10 10 10 10
6 7 7 7 8 8 8 8 8 8 9 9 10 10 11 11 11 12 12 12 12 13 13 12 12 12 11 10 10 10 11 11 10 10 10 10 10 10 10 10 10 10 10
6 6 7 7 7 8 8 8 8 8 8 9 9 10 10 10 11 11 12 12 12 12 12 12 12 12 11 11 11 10 11 11 11 11 10 10 10 10 10 10 10 10 10
5 6 6 6 7 7 7 7 8 8 8 9 9 9 10 10 11 11 11 12 12 12 12 12 12 12 11 11 11 11 11 11 11 11 11 11 10 10 10 10 10 10 10

GEFSSE_850_meantemp_180.txt.gz
Temperature
18 18 18 18 18 18 18 17 17 17 18 18 18 18 18 18 18 18 18 18 17 17 17 17 17 16 16 16 16 16 15 15 15 15 15 14 14 14 14 14 14 14 14
17 18 17 17 17 17 17 17 17 17 17 17 18 18 18 18 18 18 18 18 17 17 17 17 16 16 16 16 16 15 15 15 15 15 14 14 14 14 14 14 13 13 13
17 17 17 17 17 17 17 17 17 17 17 17 17 17 18 18 18 18 18 17 17 17 16 16 16 16 16 16 15 15 15 15 15 14 14 14 14 14 13 13 13 13 13
16 16 16 17 17 17 17 17 17 17 17 17 17 17 17 17 17 17 17 17 17 16 16 16 16 16 16 16 15 15 15 15 15 14 14 14 13 13 13 13 13 13 13
15 16 16 16 16 16 17 17 17 17 17 17 17 17 17 17 17 17 17 16 16 16 16 16 16 16 16 15 15 15 15 14 14 14 14 13 13 13 13 13 12 12 12
15 15 15 16 16 16 16 16 16 16 17 17 17 17 17 17 17 17 16 16 16 16 16 16 16 16 15 15 15 15 14 14 14 14 14 13 13 12 12 12 12 12 12
15 15 15 15 15 16 16 16 16 16 16 16 16 16 16 16 16 16 16 16 16 16 16 16 16 15 15 15 14 14 14 14 14 14 13 13 12 12 12 12 11 12 11
14 14 14 15 15 15 15 16 16 16 16 16 16 16 16 16 16 16 16 16 15 15 15 15 15 15 15 14 14 14 14 14 14 13 13 12 12 12 12 12 11 11 11
14 14 14 14 14 15 15 15 15 15 15 16 16 16 16 16 16 16 15 15 15 15 15 15 15 15 14 14 14 14 14 14 13 13 13 12 12 12 12 12 11 11 11
13 13 14 14 14 14 14 15 15 15 15 15 15 15 15 15 15 15 15 15 15 15 15 15 15 15 14 14 14 14 14 13 13 13 12 12 12 12 11 11 11 11 11
12 13 13 13 14 14 14 14 14 14 15 15 15 15 15 15 15 15 15 15 15 15 15 15 14 14 14 14 14 14 13 13 13 12 12 12 12 11 11 11 11 11 11
12 12 12 13 13 13 14 14 14 14 14 14 14 14 15 15 15 15 15 15 15 15 14 14 14 14 14 13 13 13 13 13 13 12 12 12 11 11 11 11 11 10 10
10 11 11 12 12 13 13 13 13 13 13 14 14 14 14 14 14 14 14 14 14 14 14 14 14 13 13 13 13 13 13 13 12 12 12 11 11 11 11 10 10 10 10
9 10 11 11 11 12 12 12 13 13 13 13 13 14 14 14 14 14 14 14 14 14 14 14 14 13 13 13 13 13 13 13 12 12 12 11 11 11 10 10 10 10 10
9 10 10 10 11 11 11 12 12 12 12 13 13 13 13 13 14 14 14 14 14 14 14 14 14 13 13 13 13 12 12 12 12 12 12 11 11 11 10 10 10 10 10
8 9 9 10 10 10 11 11 12 12 12 12 12 13 13 13 13 13 13 13 13 13 13 14 13 13 13 13 12 12 12 12 12 12 11 11 11 11 10 10 10 10 9
8 8 9 9 9 9 10 10 11 11 11 11 12 12 12 12 12 13 13 13 13 13 13 13 13 13 12 12 12 12 12 12 12 11 11 11 11 10 10 10 10 10 9
7 7 8 8 8 9 9 9 10 10 10 11 11 11 12 12 12 12 12 12 13 13 13 12 12 12 12 12 12 12 12 11 11 11 11 11 11 10 10 10 10 10 9
6 7 7 8 8 8 8 9 9 9 10 10 10 10 11 11 11 11 12 12 12 12 12 12 12 12 12 12 11 11 11 11 11 11 11 11 11 10 10 10 10 10 9
6 6 7 7 7 8 8 8 8 9 9 9 10 10 10 10 11 11 11 11 12 12 12 12 12 11 11 11 11 11 11 11 11 11 11 10 10 10 10 10 10 10 10
6 6 6 6 7 7 7 7 8 8 9 9 9 9 9 10 10 10 10 10 11 11 11 11 11 11 10 10 10 10 10 10 10 10 10 10 10 10 10 10 10 10 10
6 6 6 6 6 6 6 7 7 8 8 8 9 9 9 9 9 9 10 10 10 11 11 11 11 10 10 10 10 9 9 9 10 10 10 10 10 10 10 10 10 10 10
5 5 5 6 6 6 6 6 7 7 7 8 8 8 9 9 9 9 9 9 10 10 10 11 10 10 10 10 10 10 9 9 10 10 10 10 10 10 10 10 10 10 10
5 5 5 5 5 5 6 6 6 6 7 7 8 8 8 8 9 9 9 9 9 10 10 10 10 10 10 9 9 10 11 11 10 10 10 10 10 10 10 10 10 10 10
4 4 4 5 5 5 5 6 6 6 6 7 7 7 8 8 8 9 9 9 9 9 10 10 10 10 10 10 10 10 10 11 11 11 10 10 10 10 10 10 10 10 10
4 4 4 4 5 5 5 5 6 6 6 6 7 7 7 7 8 8 8 9 9 9 9 10 10 10 10 10 10 10 10 10 11 11 11 10 10 10 10 10 10 10 10

GEFSSE_850_meantemp_186.txt.gz
Temperature
15 15 16 16 16 16 17 17 17 17 17 17 17 17 18 18 18 18 18 18 17 17 17 17 17 17 17 17 17 17 16 16 16 16 15 15 15 15 15 15 14 14 14
14 15 16 16 16 16 16 17 17 17 17 17 17 17 17 17 17 18 17 17 17 17 17 17 17 17 17 17 17 16 16 16 16 15 15 15 15 15 15 14 14 14 14
14 15 15 16 16 16 16 16 17 17 17 17 17 17 17 17 17 17 17 17 17 17 17 17 17 17 16 16 16 16 16 16 15 15 15 14 14 15 14 14 14 14 14
14 14 15 15 16 16 16 16 16 17 17 17 17 17 17 17 17 17 17 17 17 17 17 16 16 16 16 16 16 16 16 16 15 15 14 14 14 14 14 14 14 13 13
14 14 15 15 16 16 16 16 16 16 16 17 17 17 17 17 17 17 17 17 17 17 16 16 16 16 16 16 16 16 16 16 15 15 14 14 13 14 14 13 13 13 13
13 14 14 15 15 16 16 16 16 16 16 16 16 16 16 16 17 17 17 17 17 16 16 16 16 16 16 16 16 16 15 15 15 14 14 14 13 14 13 13 13 13 13
13 13 14 14 15 15 15 16 16 16 16 16 16 16 16 16 16 16 16 16 16 16 16 16 16 16 16 16 15 15 15 15 14 14 14 13 13 13 13 13 13 12 12
12 13 13 14 14 15 15 15 15 16 16 16 16 16 16 16 16 16 16 16 16 16 16 16 16 16 15 15 15 15 15 15 14 14 13 13 13 13 13 13 12 12 12
12 12 13 13 14 14 14 15 15 15 15 15 16 16 16 16 16 16 16 16 16 15 15 15 15 15 15 15 15 15 15 14 14 13 13 13 13 13 13 12 12 12 12
12 12 12 12 13 13 14 14 14 14 15 15 15 15 15 15 15 15 15 15 15 15 15 15 15 15 15 15 14 14 14 14 13 13 13 13 13 13 12 12 12 12 12
11 11 11 12 12 12 13 13 14 14 14 14 14 14 15 15 15 15 15 15 15 15 15 15 15 15 14 14 14 14 14 13 13 13 13 13 13 13 12 12 12 12 11
10 10 10 11 11 12 12 12 13 13 13 14 14 14 14 14 14 14 15 15 15 15 15 14 14 14 14 14 14 13 13 13 13 13 13 13 13 12 12 12 12 11 11
9 10 10 10 11 11 11 12 12 12 13 13 13 13 14 14 14 14 14 14 14 14 14 14 14 14 14 13 13 13 13 13 13 12 13 13 13 12 12 12 11 11 11
8 9 9 9 10 10 10 11 11 11 12 12 13 13 13 13 13 14 14 14 14 14 14 14 14 13 13 13 13 13 13 13 13 12 12 13 12 12 12 12 11 11 11
8 8 8 9 9 9 9 10 10 10 11 11 12 12 12 13 13 13 13 13 13 13 13 13 13 13 13 13 13 13 13 13 12 12 12 12 12 12 12 12 11 11 10
7 7 7 8 8 8 9 9 9 9 10 10 10 11 11 12 12 12 12 13 13 13 13 13 13 13 13 13 13 12 12 12 12 12 12 12 12 12 12 11 11 11 10
6 7 7 7 7 8 8 8 8 9 9 9 10 10 11 11 11 11 12 12 12 12 12 12 12 12 12 12 12 12 12 12 12 12 12 12 12 12 12 11 11 11 10
6 6 6 7 7 7 7 7 8 8 8 9 9 9 10 10 10 10 10 11 11 11 11 11 12 12 12 12 11 12 12 12 11 11 11 11 11 11 11 11 11 11 10
6 6 6 6 6 6 7 7 7 7 8 8 8 9 9 9 9 9 10 10 10 10 10 10 11 11 11 11 11 11 11 11 11 11 11 11 11 11 11 11 11 11 10
6 6 5 5 6 6 6 6 6 7 7 7 7 8 8 9 9 9 9 9 9 10 10 10 10 10 10 10 10 10 11 11 11 11 10 10 11 11 11 11 10 10 10
6 5 5 5 5 5 5 6 6 6 7 7 7 7 8 8 8 8 8 9 9 9 9 9 9 9 10 10 9 9 10 10 10 10 10 10 10 10 10 10 10 10 10
5 5 5 5 5 5 5 5 5 6 6 6 6 7 7 7 8 8 8 8 8 8 8 9 9 9 9 9 9 9 9 9 10 10 10 10 10 10 10 10 10 10 10
5 5 5 5 5 5 5 5 5 5 5 5 6 6 7 7 7 8 8 8 8 8 8 8 9 8 8 8 9 9 9 10 10 9 10 10 10 10 10 10 10 10 10
5 5 5 5 4 4 4 4 5 5 5 5 6 6 7 7 7 7 7 7 8 8 8 8 8 8 8 8 8 9 9 10 10 9 9 9 10 10 10 10 10 10 10
5 4 4 4 4 4 4 4 4 4 5 5 5 5 6 6 6 7 7 7 7 7 8 8 8 8 8 8 8 8 9 9 10 10 9 9 9 9 9 9 10 10 10
5 4 4 4 4 4 4 4 4 4 4 4 5 5 5 6 6 6 6 7 7 7 7 7 7 8 8 8 8 8 8 9 9 10 10 9 9 9 9 10 10 10 10

GEFSSE_850_meantemp_192.txt.gz
Temperature
15 15 16 16 16 16 17 17 17 17 17 17 17 17 18 18 18 18 18 18 17 17 17 17 17 17 17 17 17 17 16 16 16 16 16 16 15 15 15 15 15 15 14
15 15 16 16 16 16 16 17 17 17 17 17 17 17 17 17 17 17 17 17 17 17 17 17 17 17 17 17 17 16 16 16 16 16 16 15 15 15 15 15 14 14 14
14 15 15 16 16 16 16 17 17 17 17 17 17 17 17 17 17 17 17 17 17 17 17 17 17 16 16 16 16 16 16 16 16 16 15 15 15 15 15 14 14 14 14
14 14 15 15 16 16 16 16 17 17 17 17 17 17 17 17 17 17 17 17 17 17 17 17 17 16 16 16 16 16 16 16 16 15 15 14 15 15 15 14 14 14 14
14 14 14 15 15 16 16 16 16 17 17 17 17 17 17 17 17 17 17 17 17 17 16 16 16 16 16 16 16 16 16 16 15 15 15 14 14 14 14 14 14 14 14
14 14 14 15 15 15 16 16 16 16 16 16 17 17 17 17 17 16 17 17 17 16 16 16 16 16 16 16 16 16 16 15 15 15 14 14 14 14 14 14 14 14 13
13 13 14 14 14 15 15 15 16 16 16 16 16 16 16 16 16 16 16 16 16 16 16 16 16 16 16 16 16 16 16 15 15 14 14 14 14 14 14 14 14 13 13
13 13 13 13 14 14 14 15 15 15 16 16 16 16 16 16 16 16 16 16 16 16 16 16 16 16 16 16 16 16 15 15 15 14 14 14 14 14 14 14 13 13 13
12 12 12 13 13 13 14 14 14 15 15 15 16 16 16 16 16 16 16 16 16 16 16 16 16 16 15 15 15 15 15 15 15 14 14 14 14 14 13 13 13 13 13
12 12 12 12 12 13 13 13 13 14 14 15 15 15 15 15 15 15 15 15 16 16 16 16 15 15 15 15 15 15 15 15 14 14 14 14 14 13 13 13 13 13 13
11 11 11 11 12 12 12 12 13 13 13 14 14 14 14 14 15 15 15 15 15 15 15 15 15 15 15 15 15 15 14 14 14 14 14 13 13 13 13 13 13 13 12
11 11 11 11 11 11 11 12 12 12 12 12 12 13 13 13 14 14 14 14 14 14 15 15 15 15 15 15 15 14 14 14 14 14 13 13 13 13 13 13 13 13 12
10 10 10 10 10 10 11 11 11 11 11 12 12 12 12 12 13 13 13 14 14 14 14 14 14 14 14 14 14 14 14 14 14 13 13 13 13 13 13 13 13 13 12
10 10 10 10 10 10 10 10 10 10 10 11 11 11 11 12 12 12 12 13 13 13 13 14 14 13 14 14 14 14 14 13 13 13 13 13 13 13 13 13 13 13 12
10 9 9 9 9 9 9 9 9 9 10 10 10 10 10 11 11 11 11 12 12 12 13 13 13 13 13 13 13 13 13 13 13 13 13 13 13 13 13 13 13 12 12
9 9 9 8 8 8 8 9 9 9 9 9 9 9 10 10 10 10 10 11 11 12 12 12 12 12 12 12 12 12 13 13 13 13 13 13 13 13 13 13 13 12 12
9 8 8 8 8 8 8 8 8 8 8 8 8 9 9 9 9 9 10 10 10 11 11 11 11 12 12 12 12 12 12 12 12 12 12 13 13 13 13 13 12 12 12
8 8 8 8 7 7 7 7 7 7 7 8 8 8 8 8 8 8 9 9 10 10 10 10 11 11 11 11 11 11 11 12 12 12 12 12 12 12 12 12 12 12 12
8 8 7 7 7 7 7 7 7 7 7 7 7 7 8 8 8 8 8 9 9 9 9 9 10 10 10 10 10 11 11 11 11 11 11 12 12 12 12 12 12 12 12
8 8 7 7 7 7 6 6 6 6 6 6 7 7 7 7 7 7 7 8 8 8 9 9 9 9 9 10 10 10 10 10 11 11 11 11 11 11 12 12 12 12 12
8 8 7 7 7 6 6 6 6 6 6 6 6 6 6 7 7 7 7 7 7 8 8 8 8 8 9 9 9 9 10 10 10 10 10 11 11 11 11 11 11 11 11
8 7 7 7 6 6 6 5 5 5 5 5 5 6 6 6 6 6 6 7 7 7 7 8 8 8 8 8 8 8 8 9 9 10 10 10 10 10 10 11 11 11 11
7 7 7 6 6 6 5 5 5 5 5 5 5 5 5 5 6 6 6 6 6 7 7 7 7 7 7 8 8 8 8 8 8 9 9 9 10 10 10 10 10 11 11
7 7 6 6 6 5 5 5 5 4 4 4 5 5 5 5 5 5 5 6 6 6 6 7 7 7 7 7 7 8 8 8 8 8 9 9 9 9 10 10 10 10 10
7 6 6 6 5 5 5 5 4 4 4 4 4 4 4 4 5 5 5 5 6 6 6 6 6 6 7 7 7 7 8 8 8 8 8 8 9 9 9 10 10 10 10
6 6 6 5 5 5 5 4 4 4 4 4 4 4 4 4 4 5 5 5 5 5 6 6 6 6 6 6 6 7 7 7 8 8 8 8 8 9 9 9 9 10 10

GEFSSE_850_meantemp_198.txt.gz
Temperature
14 15 15 16 16 16 17 17 17 17 17 17 17 17 17 17 17 17 17 17 17 17 17 17 17 17 17 16 16 16 16 16 16 16 15 15 15 15 15 15 15 15 15
14 15 15 15 16 16 16 17 17 17 17 17 17 17 17 17 17 17 17 17 17 17 17 17 17 17 17 16 16 16 16 16 16 16 16 15 15 15 15 15 15 15 14
14 15 15 15 16 16 16 16 17 17 17 17 17 17 17 17 17 17 17 17 17 17 17 17 17 17 16 16 16 16 16 16 16 16 15 15 15 15 15 15 15 14 14
14 14 15 15 15 16 16 16 16 17 17 17 17 17 17 17 17 17 17 17 17 17 17 17 16 16 16 16 16 16 16 16 16 16 15 15 15 15 15 15 14 14 14
14 14 15 15 15 15 15 16 16 16 16 17 17 17 17 17 17 17 17 17 17 16 16 16 16 16 16 16 16 16 16 16 16 15 15 15 15 15 15 15 14 14 14
14 14 14 14 14 15 15 15 15 16 16 16 16 16 16 16 16 16 16 16 16 16 16 16 16 16 16 16 16 16 15 15 15 15 15 15 15 15 14 14 14 14 14
14 13 14 14 14 14 14 15 15 15 15 16 16 16 16 16 16 16 16 16 16 16 16 16 16 16 16 16 16 16 15 15 15 15 15 15 15 14 14 14 14 14 14
13 13 13 13 14 14 14 14 14 15 15 15 15 15 16 16 16 16 16 16 16 16 16 16 16 16 15 15 15 15 15 15 15 15 15 14 14 14 14 14 14 13 13
13 13 13 13 13 13 13 14 14 14 14 14 14 15 15 15 15 15 15 15 15 16 15 15 15 15 15 15 15 15 15 15 15 15 15 14 14 14 14 14 13 13 13
12 12 12 12 13 13 13 13 13 13 14 14 14 14 14 14 14 15 15 15 15 15 15 15 15 15 15 15 15 15 15 14 14 14 14 14 14 14 14 13 13 13 13
12 12 12 12 12 12 12 12 13 13 13 13 13 13 13 13 14 14 14 14 14 14 14 15 14 14 14 14 14 15 14 14 14 14 14 14 14 14 14 13 13 13 13
11 11 11 11 11 12 12 12 12 12 12 12 13 13 13 13 13 13 13 13 13 14 14 14 14 14 14 14 14 14 14 14 14 14 14 14 14 14 13 13 13 13 13
11 11 11 11 11 11 11 11 11 12 12 12 12 12 12 12 12 12 12 13 13 13 13 13 13 13 13 14 14 14 14 14 14 14 14 14 14 14 13 13 13 13 13
11 11 11 11 11 11 11 11 11 11 11 11 11 11 11 11 11 12 12 12 12 12 12 13 13 13 13 13 13 13 13 13 13 13 13 13 13 13 13 13 13 13 13
11 10 10 10 10 10 10 10 10 10 10 10 10 10 10 10 11 11 11 11 11 11 11 12 12 12 12 12 12 13 13 13 13 13 13 13 13 13 13 13 13 13 12
10 10 10 10 10 10 10 10 10 10 9 9 9 9 9 9 10 10 10 10 10 10 11 11 11 11 11 12 12 12 12 12 12 12 13 13 13 13 13 13 13 12 12
10 10 10 10 9 9 9 9 9 9 9 9 9 9 9 9 9 9 9 9 9 9 10 10 10 10 10 11 11 11 11 12 12 12 12 12 12 12 12 12 12 12 12
10 10 9 9 9 9 9 9 8 8 8 8 8 8 8 8 8 8 8 9 9 9 9 9 9 9 10 10 10 11 11 11 11 11 11 12 12 12 12 12 12 12 12
10 10 9 9 9 9 9 8 8 8 8 8 8 8 8 8 8 7 7 8 8 8 8 8 8 8 9 9 9 10 10 10 11 11 11 11 11 11 11 11 12 12 12
10 9 9 9 8 8 8 8 8 8 8 7 7 7 7 7 7 7 7 7 7 7 7 7 8 8 8 8 8 9 10 10 10 10 11 11 11 11 11 11 11 11 11
9 9 9 8 8 8 8 7 7 7 7 7 7 7 7 7 7 6 6 6 6 6 7 7 7 7 7 7 7 8 9 9 10 10 10 10 10 10 10 10 10 11 11
9 9 8 8 8 8 7 7 7 7 7 7 6 6 6 6 6 6 6 6 6 6 6 6 6 6 6 6 6 6 7 8 8 9 9 10 10 10 10 10 10 10 10
9 9 8 8 8 7 7 7 7 6 6 6 6 6 6 6 6 5 5 5 5 5 5 5 5 5 6 6 6 5 6 6 7 8 8 9 9 9 9 9 9 10 9
9 8 8 8 7 7 7 6 6 6 6 6 5 5 5 5 5 5 5 5 5 5 5 5 5 5 5 5 5 6 6 6 6 6 7 8 8 8 9 9 9 9 9
8 8 8 7 7 7 6 6 6 5 5 5 5 5 5 5 5 5 5 4 4 4 4 4 4 4 5 5 5 5 6 6 6 5 6 7 7 8 8 8 9 9 9
8 8 7 7 7 6 6 6 5 5 5 4 4 4 4 4 4 4 4 4 4 4 4 4 4 4 4 5 5 5 5 5 6 6 5 6 6 7 8 8 8 8 8

GEFSSE_850_meantemp_204.txt.gz
Temperature
14 14 14 14 15 15 16 16 16 17 17 17 17 17 17 17 17 17 17 17 17 17 17 17 17 17 17 16 16 16 16 16 16 16 16 16 15 15 15 15 15 15 15
14 14 14 15 15 15 16 16 16 16 16 17 17 17 17 17 17 17 17 17 17 17 17 17 17 17 16 16 16 16 16 16 16 16 16 16 15 15 15 15 15 15 15
14 14 14 14 15 15 15 16 16 16 16 16 16 17 17 17 17 17 17 17 17 17 17 16 16 16 16 16 16 16 16 16 16 16 16 15 15 15 15 15 15 15 15
14 14 14 14 15 15 15 16 16 16 16 16 16 16 16 16 17 16 16 16 16 16 16 16 16 16 16 16 16 16 16 16 16 15 15 15 15 15 15 15 15 15 14
13 14 14 14 14 15 15 15 15 16 16 16 16 16 16 16 16 16 16 16 16 16 16 16 16 16 16 16 16 16 16 15 15 15 15 15 15 15 15 15 15 14 14
13 13 13 14 14 14 14 15 15 15 15 15 16 16 16 16 16 16 16 16 16 16 16 16 16 16 16 16 16 16 15 15 15 15 15 15 15 15 15 14 14 14 14
13 13 13 13 14 14 14 14 14 15 15 15 15 15 15 16 16 16 16 16 16 16 16 16 15 15 15 15 15 15 15 15 15 15 15 15 15 15 14 14 14 14 14
13 13 13 13 13 13 13 14 14 14 14 14 15 15 15 15 15 15 15 15 15 15 15 15 15 15 15 15 15 15 15 15 15 15 15 15 15 14 14 14 14 14 14
12 12 13 13 13 13 13 13 13 13 13 14 14 14 14 14 14 14 14 15 15 15 15 15 15 14 15 15 15 15 15 15 15 15 14 14 14 14 14 14 14 14 13
12 12 12 12 12 12 12 13 13 13 13 13 13 13 13 14 14 14 14 14 14 14 14 14 14 14 14 14 14 14 14 14 14 14 14 14 14 14 14 14 14 14 13
12 12 12 12 12 12 12 12 12 12 13 13 13 13 13 13 13 13 13 13 13 13 14 14 14 14 14 14 14 14 14 14 14 14 14 14 14 14 14 14 14 13 13
12 12 12 11 11 12 12 12 12 12 12 12 12 12 12 12 12 12 13 13 13 13 13 13 13 13 13 13 13 13 13 13 14 13 13 13 13 13 14 14 13 13 13
11 11 11 11 11 11 11 11 12 12 12 12 12 12 12 12 12 12 12 12 12 12 12 12 13 13 13 13 13 13 13 13 13 13 13 13 13 13 13 13 13 13 13
11 11 11 11 11 11 11 11 11 11 11 11 11 11 11 11 11 11 11 11 11 11 12 12 12 12 12 12 12 12 12 13 13 13 13 13 13 13 13 13 13 13 13
11 11 11 10 10 10 10 10 10 10 10 10 10 10 10 10 10 10 10 11 11 11 11 11 11 11 11 11 11 12 12 12 12 12 12 12 12 12 12 12 12 12 12
11 10 10 10 10 10 10 10 10 10 10 10 10 10 10 10 10 10 10 10 10 10 10 10 10 10 11 11 11 11 11 11 12 12 12 12 12 12 12 12 12 12 12
10 10 10 10 10 10 9 9 9 9 9 9 9 9 9 9 9 9 9 9 9 9 9 9 10 10 10 10 10 10 10 11 11 11 11 12 12 12 12 12 12 12 12
10 10 10 10 10 9 9 9 9 9 9 9 9 9 9 9 8 8 8 8 8 8 8 9 9 9 9 9 9 10 10 10 10 10 11 11 11 11 11 11 11 11 11
10 10 10 10 9 9 9 9 9 9 9 9 9 8 8 8 8 8 8 8 7 8 8 8 8 8 8 8 8 9 9 9 10 10 10 10 10 11 11 11 11 11 11
10 10 10 9 9 9 9 9 9 8 8 8 8 8 8 8 7 7 7 7 7 7 7 7 7 7 7 7 7 8 8 9 9 9 10 10 10 10 10 10 10 10 11
10 10 9 9 9 9 8 8 8 8 8 8 8 8 7 7 7 7 7 7 6 6 6 6 6 6 6 6 6 7 8 8 8 9 9 9 9 10 10 10 10 10 10
10 9 9 9 9 8 8 8 8 8 8 8 7 7 7 7 7 6 6 6 6 6 6 6 6 6 6 5 5 5 5 6 7 8 8 8 9 9 9 9 9 9 9
9 9 9 9 8 8 8 8 7 7 7 7 7 7 7 6 6 6 6 5 5 5 5 5 5 5 5 5 4 4 4 4 5 6 7 8 8 8 8 9 9 9 9
9 9 9 8 8 8 7 7 7 7 7 7 6 6 6 6 6 6 5 5 5 5 5 5 4 4 4 4 4 4 4 4 3 4 6 6 7 7 8 8 8 8 8
9 9 8 8 8 7 7 7 7 6 6 6 6 6 6 6 5 5 5 5 4 4 4 4 4 4 4 3 3 3 3 3 3 3 4 5 6 6 7 7 7 8 8
9 8 8 8 8 7 7 7 6 6 6 6 5 5 5 5 5 5 4 4 4 4 4 4 4 4 3 3 3 3 3 3 3 3 3 4 4 5 6 7 7 7 7

GEFSSE_850_meantemp_210.txt.gz
Temperature
14 14 15 15 15 15 16 16 16 16 16 17 17 17 17 17 17 17 17 17 17 17 17 17 17 17 17 17 17 16 16 16 16 16 16 16 16 16 16 16 15 15 15
14 14 15 15 15 15 15 16 16 16 16 16 16 16 17 17 17 17 17 17 17 17 17 17 17 17 17 17 16 16 16 16 16 16 16 16 16 16 16 16 15 15 15
14 14 14 15 15 15 15 15 16 16 16 16 16 16 16 16 16 16 16 16 16 17 17 16 16 16 16 16 16 16 16 16 16 16 16 15 15 16 16 16 15 15 15
13 13 14 14 15 15 15 15 15 16 16 16 16 16 16 16 16 16 16 16 16 16 16 16 16 16 16 16 16 16 16 16 16 16 15 15 15 15 16 15 15 15 15
13 13 14 14 14 15 15 15 15 15 16 16 16 16 16 16 16 16 16 16 16 16 16 16 16 16 16 16 16 16 16 16 16 15 15 15 15 15 15 15 15 15 15
13 13 13 14 14 14 15 15 15 15 15 15 15 16 16 16 16 16 16 16 16 16 16 16 16 16 16 16 16 16 16 16 15 15 15 15 15 15 15 15 15 15 15
12 12 13 13 14 14 14 14 14 15 15 15 15 15 15 15 15 15 15 15 15 15 15 15 15 15 15 15 15 15 15 15 15 15 15 15 15 15 15 15 15 15 15
12 12 13 13 13 13 14 14 14 14 14 14 14 15 15 15 15 15 15 15 15 15 15 15 15 15 15 15 15 15 15 15 15 15 15 15 15 15 15 15 14 14 14
12 12 12 13 13 13 13 13 13 13 14 14 14 14 14 14 14 14 14 14 14 14 14 15 14 14 14 15 15 15 15 15 14 14 14 14 14 14 14 14 14 14 14
12 12 12 12 12 13 13 13 13 13 13 13 13 13 14 14 14 14 14 14 14 14 14 14 14 14 14 14 14 14 14 14 14 14 14 14 14 14 14 14 14 14 14
12 12 12 12 12 12 12 12 12 12 13 13 13 13 13 13 13 13 13 13 13 13 13 13 14 14 14 14 14 14 14 14 13 13 13 14 14 14 14 14 14 14 13
11 12 12 12 12 12 12 12 12 12 12 12 12 12 13 13 13 13 13 13 13 13 13 13 13 13 13 13 13 13 13 13 13 13 13 13 13 13 13 13 13 13 13
11 11 11 11 12 12 12 12 12 12 12 12 12 12 12 12 12 12 12 12 12 12 12 12 12 12 12 12 12 12 12 12 12 12 12 13 13 13 13 13 13 13 13
11 11 11 11 11 11 11 11 11 11 11 11 11 11 11 12 12 11 11 12 12 11 11 11 11 11 12 12 12 12 12 12 12 12 12 12 13 13 12 12 12 12 12
11 11 11 11 11 11 11 11 11 11 11 11 11 11 11 11 11 11 11 11 11 11 11 11 11 11 11 11 11 11 11 11 11 11 11 12 12 12 12 12 12 12 12
11 11 11 11 11 11 11 11 11 11 11 11 11 11 11 10 10 10 10 10 10 10 10 10 10 10 10 10 10 10 10 10 10 10 10 11 11 12 12 12 12 12 12
10 11 11 11 10 10 10 10 10 10 10 10 10 10 10 10 10 10 10 10 10 10 10 10 10 10 10 10 10 10 10 10 10 10 10 10 10 10 11 11 11 11 11
10 10 10 10 10 10 10 10 10 10 10 10 10 10 10 9 9 9 9 9 9 9 9 9 9 9 9 9 9 9 9 9 9 9 9 9 9 10 10 10 11 11 11
10 10 10 10 10 10 10 10 10 10 9 9 9 9 9 9 9 9 8 8 8 8 8 8 8 8 8 8 8 8 8 9 9 9 9 9 9 9 9 9 10 10 10
10 10 10 10 10 10 10 9 9 9 9 9 9 9 9 8 8 8 8 8 8 8 8 8 7 7 7 7 7 7 8 8 8 8 8 8 8 8 8 9 9 9 10
10 10 9 9 9 9 9 9 9 9 9 8 8 8 8 8 8 8 8 7 7 7 7 7 7 7 7 7 6 6 7 7 7 7 7 8 8 8 8 8 8 8 9
9 9 9 9 9 9 9 9 9 8 8 8 8 8 8 8 8 7 7 7 7 7 6 6 6 6 6 5 5 5 5 6 7 7 7 7 7 7 7 7 7 8 8
9 9 9 9 9 9 9 8 8 8 8 8 8 8 7 7 7 7 7 7 6 6 6 5 5 5 5 5 4 4 4 5 5 5 6 6 6 6 7 7 7 7 7
9 9 9 9 9 9 8 8 8 7 7 7 7 7 7 7 7 7 7 6 6 5 5 5 5 4 4 4 4 4 4 4 3 4 5 5 5 6 6 6 6 6 6
9 9 9 9 8 8 8 8 7 7 7 7 7 7 6 6 6 6 6 6 5 5 5 4 4 4 4 3 3 3 3 3 3 3 4 4 5 5 5 5 5 6 6
9 9 9 8 8 8 8 7 7 7 7 6 6 6 6 6 6 6 5 5 5 5 4 4 4 4 4 3 3 3 3 2 3 3 3 3 4 4 4 5 5 5 5

GEFSSE_850_meantemp_216.txt.gz
Temperature
15 15 16 16 16 16 16 16 17 17 17 17 17 16 16 16 16 17 17 17 17 17 17 17 17 17 17 17 17 16 16 16 16 16 16 16 16 16 16 16 16 16 16
15 15 15 16 16 16 16 16 16 16 16 16 16 16 16 16 16 16 17 17 17 17 17 17 17 17 17 17 16 16 16 16 16 16 16 16 16 16 16 16 16 16 15
15 15 15 16 16 16 16 16 16 16 16 16 16 16 16 16 16 16 16 17 17 17 17 16 16 17 17 16 16 16 16 16 16 16 16 16 16 16 16 16 16 16 15
14 14 15 15 15 16 16 16 16 16 16 16 16 16 16 16 16 16 16 16 16 16 16 16 16 16 16 16 16 16 16 16 16 16 15 15 15 15 16 16 16 15 15
14 14 15 15 15 15 16 16 16 16 16 16 16 16 16 16 16 16 16 16 16 16 16 16 16 16 16 16 16 16 16 16 15 15 15 15 15 15 15 15 15 15 15
13 14 14 15 15 15 15 15 15 16 16 16 16 16 16 16 16 16 16 16 16 16 16 16 16 16 16 16 16 16 15 15 15 15 15 15 15 15 15 15 15 15 15
13 14 14 14 15 15 15 15 15 15 15 15 15 15 15 15 15 15 15 15 15 15 16 15 16 16 15 16 16 15 15 15 15 15 15 15 15 15 15 15 15 15 15
13 13 14 14 14 14 14 15 15 15 15 15 15 15 15 15 15 15 15 15 15 15 15 15 15 15 15 15 15 15 15 15 15 15 14 15 15 15 15 15 15 15 15
13 13 13 13 14 14 14 14 14 14 14 14 14 14 14 15 15 14 15 15 15 15 15 15 15 15 15 15 15 15 15 14 14 14 14 14 14 14 14 14 14 14 14
12 12 13 13 13 14 14 14 14 14 14 14 14 14 14 14 14 14 14 14 14 14 14 14 14 14 14 14 14 14 14 14 14 14 14 14 14 14 14 14 14 14 14
12 12 12 13 13 13 13 13 13 13 13 13 13 13 13 13 13 14 14 14 14 14 14 14 14 14 14 14 14 14 14 14 13 13 13 13 13 13 13 13 13 13 13
12 12 12 12 13 13 13 13 13 13 13 13 13 13 13 13 13 13 13 13 13 13 13 13 13 13 13 13 13 13 13 13 13 13 13 13 13 13 13 13 13 13 13
12 12 12 12 12 12 13 12 13 13 13 13 13 12 12 13 13 12 12 12 13 13 13 13 12 12 12 12 12 12 12 12 12 12 12 12 12 12 12 12 12 12 12
12 12 12 12 12 12 12 12 12 12 12 12 12 12 12 12 12 12 12 12 12 12 12 12 12 12 12 12 12 12 12 12 12 12 12 12 12 12 12 12 12 12 12
12 12 12 12 12 12 12 12 12 12 12 12 12 12 12 12 12 12 12 12 12 11 11 11 11 11 11 11 11 11 11 11 11 11 11 11 12 11 11 11 11 11 11
12 11 11 12 12 12 12 12 12 12 11 11 11 11 11 11 11 11 11 11 11 11 11 11 11 11 11 11 11 11 11 11 11 11 11 11 11 11 11 11 11 11 11
11 11 11 11 11 12 11 11 11 11 11 11 11 11 11 11 11 11 11 10 10 10 10 10 10 10 10 10 10 10 10 10 10 10 10 10 10 10 10 10 10 10 10
11 11 11 11 11 11 11 11 11 11 11 11 11 10 10 10 10 10 10 10 10 10 10 10 10 10 10 10 10 10 10 10 10 10 10 10 10 10 10 9 9 9 9
11 11 11 11 11 11 11 11 11 10 10 10 10 10 10 10 10 10 10 10 9 9 9 9 9 9 9 9 9 9 9 10 10 9 9 9 9 9 9 9 9 9 9
11 11 11 11 11 11 11 10 10 10 10 10 10 10 10 10 9 9 9 9 9 9 9 9 9 9 8 8 8 9 9 9 9 9 8 8 8 8 8 8 8 8 8
10 10 10 10 10 10 10 10 10 10 10 9 9 9 9 9 9 9 9 9 9 8 8 8 8 8 8 8 8 8 8 8 8 8 8 8 8 8 8 8 8 8 8
10 10 10 10 10 10 10 10 10 10 9 9 9 9 9 9 9 9 8 8 8 8 8 7 7 7 7 7 6 6 6 7 7 7 7 7 7 7 7 7 7 7 7
10 10 10 10 10 10 10 10 9 9 9 9 8 8 8 8 8 8 8 8 7 7 7 7 7 6 6 6 5 5 5 5 5 6 6 6 6 6 6 6 6 6 6
10 10 9 10 10 9 9 9 9 9 8 8 8 8 8 8 8 8 7 7 7 7 7 7 6 6 6 5 5 5 4 4 4 4 5 5 5 6 6 6 6 6 6
10 9 9 9 9 9 9 9 8 8 8 8 8 7 7 7 7 7 7 7 7 7 6 6 6 6 5 5 4 4 4 4 3 3 3 4 5 5 5 5 5 5 5
9 9 9 9 9 9 9 8 8 8 8 7 7 7 7 7 7 7 7 6 6 6 6 6 5 5 5 4 4 4 3 3 3 3 3 3 3 4 4 4 4 4 4

GEFSSE_850_meantemp_222.txt.gz
Temperature
15 15 15 16 16 16 17 17 17 17 17 17 17 17 17 17 17 17 17 17 17 17 17 17 17 16 16 16 16 16 16 16 16 16 16 16 16 16 16 16 16 16 16
15 15 15 16 16 16 16 17 17 17 17 17 17 17 17 17 17 17 17 17 17 17 17 17 16 16 16 16 16 16 16 16 16 16 16 16 16 16 16 16 16 16 16
15 15 15 16 16 16 16 16 17 17 17 17 17 17 17 17 17 17 17 17 16 16 17 17 16 16 16 16 16 16 16 16 16 16 16 16 16 15 15 15 15 15 15
15 15 15 16 16 16 16 16 16 16 16 16 17 16 16 16 16 16 16 16 16 16 16 16 16 16 16 16 16 16 16 16 16 16 16 15 15 15 15 15 15 15 15
15 15 15 15 16 16 16 16 16 16 16 16 16 16 16 16 16 16 16 16 16 16 16 16 16 16 16 16 16 15 15 15 15 15 15 15 15 15 15 15 15 15 15
15 15 15 15 15 16 16 16 16 16 16 16 16 16 16 16 16 16 16 16 16 16 16 16 15 15 15 15 15 15 15 15 15 15 15 15 15 15 15 15 15 15 15
14 14 15 15 15 15 15 16 16 16 16 15 15 15 15 16 16 16 16 15 15 15 15 15 15 15 15 15 15 15 15 15 15 15 15 15 14 14 14 14 14 14 14
14 14 14 15 15 15 15 15 15 15 15 15 15 15 15 15 15 15 15 15 15 15 15 15 15 15 15 14 14 14 14 14 14 14 14 14 14 14 14 14 14 14 14
14 14 14 14 15 15 15 15 15 15 15 15 15 15 15 15 15 15 15 15 15 15 15 14 14 14 14 14 14 14 14 14 14 14 14 14 14 14 13 13 13 13 13
13 14 14 14 14 14 14 14 14 14 14 14 14 14 14 14 14 15 15 14 14 14 14 14 14 14 14 14 14 14 13 13 13 13 13 13 13 13 13 13 13 13 13
13 13 13 14 14 14 14 14 14 14 14 14 14 14 14 14 14 14 14 14 14 14 14 14 14 14 14 14 13 13 13 13 13 13 13 13 13 13 13 12 12 12 12
13 13 13 13 13 13 14 14 14 14 14 14 14 14 14 14 14 14 14 14 14 13 13 13 13 13 13 13 13 13 13 13 13 13 13 12 12 12 12 12 12 12 12
13 13 13 13 13 13 13 13 14 14 14 14 14 14 13 13 13 13 13 13 13 13 13 13 13 13 13 13 13 13 13 12 12 12 12 12 12 12 12 12 12 12 12
13 13 13 13 13 13 13 13 13 13 13 13 13 13 13 13 13 13 13 13 13 13 13 13 13 12 12 12 12 12 12 12 12 12 12 12 12 12 11 11 11 11 11
13 12 12 12 13 13 13 13 13 13 13 13 13 13 13 13 13 13 13 12 12 12 12 12 12 12 12 12 12 12 12 12 12 12 12 12 11 11 11 11 11 10 10
13 12 12 12 12 12 12 13 13 13 13 13 13 12 12 12 12 12 12 12 12 12 12 12 12 12 12 12 12 12 12 12 11 11 11 11 11 11 11 10 10 10 10
13 12 12 12 12 12 12 12 12 12 12 12 12 12 12 12 12 12 12 12 11 11 11 11 11 11 11 11 11 11 11 11 11 11 11 11 11 10 10 10 10 9 9
12 12 12 12 12 12 12 12 12 12 12 12 12 11 11 11 11 11 11 11 11 11 11 11 11 11 11 11 11 11 11 11 11 10 10 10 10 10 10 9 9 9 9
12 12 12 12 12 12 11 11 11 11 11 11 11 11 11 11 11 11 11 11 11 10 10 10 10 10 10 10 10 10 10 10 10 10 10 9 9 9 9 9 9 8 8
12 12 12 11 11 11 11 11 11 11 11 11 11 11 10 10 10 10 10 10 10 10 10 10 10 10 10 10 10 10 10 10 10 10 9 9 9 9 8 8 8 8 8
12 11 11 11 11 11 11 11 11 11 10 10 10 10 10 10 10 10 10 10 10 9 9 9 9 9 9 9 9 9 9 9 9 9 9 8 8 8 8 7 7 7 7
12 11 11 11 11 11 11 11 10 10 10 10 10 10 10 9 9 9 9 9 9 9 9 9 9 8 8 8 7 7 7 8 8 8 8 8 7 7 7 7 7 6 6
12 11 11 11 11 10 10 10 10 10 10 9 9 9 9 9 9 9 9 9 9 8 8 8 8 8 7 7 6 6 5 5 5 6 6 7 6 6 6 6 6 6 6
12 11 11 11 10 10 10 10 10 10 9 9 9 9 9 9 9 9 8 8 8 8 8 8 7 7 7 6 6 6 5 4 4 4 5 6 6 6 6 5 5 5 5
11 11 11 10 10 10 10 10 9 9 9 9 9 9 8 8 8 8 8 8 8 7 7 7 7 7 6 6 6 5 5 5 4 4 4 5 5 5 5 5 5 5 5
11 11 10 10 10 10 9 9 9 9 9 8 8 8 8 8 8 8 7 7 7 7 7 7 6 6 6 6 5 5 5 4 4 3 3 4 4 5 5 5 4 4 4

GEFSSE_850_meantemp_228.txt.gz
Temperature
16 16 15 15 16 16 16 16 16 17 17 17 17 17 17 17 17 17 17 17 17 17 17 16 16 16 16 16 16 16 16 16 16 16 16 16 16 16 16 16 16 15 15
16 16 15 15 16 16 16 16 16 16 17 17 17 17 17 17 17 17 17 16 16 16 16 16 16 16 16 16 16 16 16 16 16 16 16 16 16 16 15 15 15 15 15
16 16 15 15 15 16 16 16 16 16 17 17 17 17 17 17 17 16 16 16 16 16 16 16 16 16 16 16 16 16 16 16 16 16 16 15 15 15 15 15 15 15 15
16 15 15 15 15 16 16 16 16 16 16 16 16 16 16 16 16 16 16 16 16 16 16 16 16 16 16 16 16 16 16 16 15 15 15 15 15 15 15 15 15 15 15
15 15 15 15 15 15 16 16 16 16 16 16 16 16 16 16 16 16 16 16 16 16 16 16 15 15 15 15 15 15 15 15 15 15 15 15 15 15 15 14 15 15 14
15 15 15 15 15 15 16 16 16 16 16 16 16 16 16 16 16 16 16 16 16 16 15 15 15 15 15 15 15 15 15 15 15 15 15 15 15 14 14 14 14 14 14
15 15 15 15 15 15 15 15 16 16 16 16 16 16 16 16 16 16 16 15 15 15 15 15 15 15 15 14 14 14 15 14 14 14 14 14 14 14 14 14 14 14 14
14 14 14 14 15 15 15 15 15 15 15 15 15 15 15 15 15 15 15 15 15 15 15 15 15 15 14 14 14 14 14 14 14 14 14 14 14 14 14 14 13 13 13
14 14 14 14 14 15 15 15 15 15 15 15 15 15 15 15 15 15 15 15 15 15 15 15 15 15 14 14 14 14 14 14 14 14 14 14 13 13 13 13 13 13 13
13 14 14 14 14 14 14 14 14 14 14 15 15 15 14 14 15 15 15 15 15 15 14 14 14 14 14 14 14 13 13 13 13 13 13 13 13 13 13 13 13 12 12
13 13 13 14 14 14 14 14 14 14 14 14 14 14 14 14 14 14 14 14 14 14 14 14 14 14 14 13 13 13 13 13 13 13 13 13 13 12 12 12 12 12 12
13 13 13 13 14 14 14 14 14 14 14 14 14 14 14 14 14 14 14 14 14 14 13 13 13 13 13 13 13 13 13 13 13 12 12 12 12 12 12 12 12 12 12
13 13 13 13 13 13 13 14 14 14 14 14 14 14 14 14 14 14 13 13 13 13 13 13 13 13 13 13 13 13 13 12 12 12 12 12 12 12 12 11 11 11 11
13 13 13 13 13 13 13 13 13 13 13 13 13 13 13 13 13 13 13 13 13 13 13 13 13 13 12 12 12 12 12 12 12 12 12 12 11 11 11 11 11 11 11
13 13 13 13 13 13 13 13 13 13 13 13 13 13 13 13 13 13 13 13 12 12 12 12 12 12 12 12 12 12 12 12 12 12 11 11 11 11 11 11 11 10 10
13 13 13 13 12 12 13 13 13 13 13 12 12 13 12 12 12 12 12 12 12 12 12 12 12 12 12 11 11 11 11 11 11 11 11 11 11 11 10 10 10 10 9
13 13 12 12 12 12 12 12 12 12 12 12 12 12 12 12 12 12 12 12 12 11 11 11 11 11 11 11 11 11 11 11 11 11 11 10 10 10 10 10 10 9 9
13 12 12 12 12 12 12 12 12 12 12 12 12 12 11 11 11 11 11 11 11 11 11 11 11 11 11 11 11 11 11 11 10 10 10 10 10 9 9 9 9 9 9
13 12 12 12 12 12 11 11 11 11 11 11 11 11 11 11 11 11 11 11 11 10 10 10 10 10 10 10 10 10 10 10 10 10 9 9 9 9 9 9 9 8 8
12 12 12 12 11 11 11 11 11 11 11 11 11 11 11 10 10 10 10 10 10 10 10 10 10 10 9 10 10 10 10 9 9 9 9 9 9 9 8 8 8 8 8
12 12 12 11 11 11 11 11 11 11 11 10 10 10 10 10 10 10 10 10 10 9 9 9 9 9 9 9 9 9 9 9 9 8 8 8 8 8 8 7 7 7 7
12 12 12 11 11 11 11 11 11 11 10 10 10 10 10 9 9 9 9 9 9 9 9 9 9 9 9 8 8 8 7 8 8 8 8 8 7 7 7 7 7 7 7
12 12 12 11 11 11 11 10 10 10 10 10 10 10 9 9 9 9 9 9 9 9 9 8 8 8 8 8 7 7 6 6 6 7 7 7 7 6 6 6 6 6 6
12 12 12 11 11 11 10 10 10 10 10 10 10 9 9 9 9 9 8 8 8 8 8 8 8 7 7 7 7 6 6 5 5 5 6 6 6 6 6 6 6 6 5
12 12 11 11 11 11 10 10 10 10 10 9 9 9 9 8 8 8 8 8 8 8 8 7 7 7 7 6 6 6 6 5 5 4 4 5 6 6 6 5 5 5 5
12 11 11 11 11 10 10 10 10 9 9 9 9 9 8 8 8 8 8 7 7 7 7 7 7 7 6 6 6 5 5 5 4 4 3 4 4 5 5 5 5 5 5

GEFSSE_850_meantemp_234.txt.gz
Temperature
16 16 16 16 16 16 17 17 17 17 17 17 17 17 17 17 17 17 17 17 17 16 16 16 16 16 16 16 16 16 16 16 16 16 16 16 16 16 16 16 15 15 15
16 16 16 16 16 16 16 17 17 17 17 17 17 17 17 17 17 17 17 16 16 16 16 16 16 16 16 16 16 16 16 16 16 16 16 16 16 16 15 15 15 15 15
16 16 16 16 16 16 16 16 16 17 17 17 17 17 17 17 16 16 16 16 16 16 16 16 16 16 16 16 16 16 16 16 16 16 15 15 15 15 15 15 15 15 15
16 16 16 16 16 16 16 16 16 16 16 16 17 17 17 16 16 16 16 16 16 16 16 16 16 16 16 15 15 15 15 16 16 15 15 14 14 15 15 15 15 15 15
15 15 15 16 16 16 16 16 16 16 16 16 16 16 16 16 16 16 16 16 16 16 16 16 15 15 15 15 15 15 15 15 15 15 14 14 14 14 14 14 14 14 14
14 14 15 15 15 15 16 16 16 16 16 16 16 16 16 16 16 16 16 15 15 15 15 15 15 15 15 15 15 15 15 15 15 14 14 14 14 14 14 14 14 14 14
14 14 14 15 15 15 15 15 15 15 15 15 15 16 16 16 16 15 15 15 15 15 15 15 15 15 15 15 14 14 14 14 14 14 14 14 14 14 14 14 14 14 13
14 14 14 15 15 15 15 15 15 15 15 15 15 15 15 15 15 15 15 15 15 15 15 15 15 15 14 14 14 14 14 14 14 13 13 13 13 13 13 13 13 13 13
14 14 14 14 14 15 15 15 15 15 15 15 15 15 15 15 15 15 15 15 15 15 15 15 14 14 14 14 14 14 14 14 13 13 13 13 13 13 13 13 13 13 13
14 14 14 14 14 14 14 14 15 15 15 15 15 15 15 15 15 15 15 15 14 14 14 14 14 14 14 14 13 13 13 13 13 13 13 13 13 13 12 13 12 12 12
14 14 14 14 14 14 14 14 14 14 14 14 14 14 14 14 14 14 14 14 14 14 14 14 14 14 13 13 13 13 13 12 12 12 12 12 12 12 12 12 12 12 12
13 14 14 14 14 14 14 14 14 14 14 14 14 14 14 14 14 14 14 14 14 14 14 14 13 13 13 13 13 13 12 12 12 12 12 12 12 12 12 12 12 11 11
13 14 14 14 14 14 14 14 14 14 14 14 14 14 14 14 14 14 13 13 13 13 13 13 13 13 12 12 12 12 12 12 12 12 12 12 12 11 11 11 11 11 11
13 13 13 13 13 13 13 13 13 13 13 13 14 13 13 13 13 13 13 13 13 13 13 13 13 12 12 12 12 12 12 12 12 11 11 11 11 11 11 11 11 11 10
13 13 13 13 13 13 13 13 13 13 13 13 13 13 13 13 13 13 13 13 13 13 12 12 12 12 12 12 12 12 11 11 11 11 11 11 11 11 11 11 10 10 10
13 13 13 13 13 13 13 13 13 13 13 13 13 13 13 13 12 12 12 12 12 12 12 12 12 12 11 11 11 11 11 11 11 11 11 11 11 11 10 10 10 10 10
13 13 13 13 12 12 12 12 12 13 12 12 12 12 12 12 12 12 12 12 12 12 12 12 11 11 11 11 11 11 11 10 10 10 10 10 10 10 10 10 10 10 9
12 12 12 12 12 12 12 12 12 12 12 12 12 12 12 12 12 12 11 12 12 11 11 11 11 11 11 11 10 10 10 10 10 10 10 10 9 9 9 9 9 9 9
12 12 12 12 12 12 12 12 12 12 12 12 11 11 11 11 11 11 11 11 11 11 11 11 11 10 10 10 10 10 10 10 10 9 9 9 9 9 8 8 9 9 8
12 12 12 12 12 12 11 11 11 11 11 11 11 11 11 11 11 11 11 11 11 11 10 10 10 10 10 10 10 9 9 9 9 9 8 8 8 8 8 8 8 8 8
12 12 12 11 11 11 11 11 11 11 11 11 11 11 11 11 10 10 10 10 10 10 10 10 9 9 9 9 9 8 8 8 8 8 8 8 8 7 7 7 7 7 7
12 12 12 11 11 11 11 11 11 11 11 10 10 10 10 10 10 10 10 10 10 10 9 9 9 9 9 8 8 7 7 7 7 7 7 7 7 7 7 7 7 6 6
12 12 12 11 11 11 11 11 11 10 10 10 10 10 10 10 9 9 9 9 9 9 9 9 8 8 8 8 7 7 6 7 6 7 7 7 6 6 6 6 6 6 6
12 12 11 11 11 11 11 11 11 10 10 10 10 10 10 9 9 9 9 9 9 9 8 8 8 7 7 7 7 7 6 6 5 5 6 6 6 6 6 6 6 5 5
11 11 11 11 11 11 11 11 10 10 10 10 10 9 9 9 9 9 8 8 8 8 8 8 7 7 7 7 7 6 6 6 5 5 5 5 5 5 5 5 5 5 5
10 11 11 10 10 10 10 10 10 10 10 9 9 9 9 9 9 8 8 8 8 8 7 7 7 7 7 6 6 6 6 5 5 4 4 4 4 5 5 5 4 4 4

GEFSSE_850_meantemp_240.txt.gz
Temperature
18 18 18 17 17 17 17 17 17 17 17 17 17 17 17 17 17 17 16 16 16 16 16 16 16 16 16 17 17 17 17 16 16 16 16 16 16 16 16 16 16 16 16
18 18 18 17 17 17 17 17 17 17 17 17 17 17 17 17 17 16 16 16 16 16 16 16 16 16 16 16 16 16 16 16 16 16 16 16 16 15 15 15 15 15 15
18 18 17 17 17 17 17 17 17 17 17 17 17 17 17 16 16 16 16 16 16 16 16 16 16 16 16 16 16 16 16 16 15 15 15 15 15 15 15 15 15 15 15
17 17 17 17 17 17 17 16 17 17 17 17 17 17 16 16 16 16 16 16 16 16 16 16 16 16 15 15 15 15 15 15 15 15 15 15 15 15 15 15 15 15 15
16 17 17 17 17 16 16 16 16 16 16 16 16 16 16 16 16 16 16 16 16 16 15 16 16 15 15 15 15 15 15 15 15 14 14 14 14 14 14 14 14 14 14
16 16 16 16 16 16 16 16 16 16 16 16 16 16 16 16 16 16 16 16 16 15 15 15 15 15 15 15 15 15 15 14 14 14 14 14 14 14 14 14 14 14 14
15 16 16 16 16 16 16 16 16 16 16 16 16 16 16 16 15 15 15 15 15 15 15 15 15 15 15 15 15 14 14 14 14 14 14 14 14 13 13 13 13 13 13
15 15 15 16 16 16 16 16 16 16 16 16 16 16 15 15 15 15 15 15 15 15 15 15 15 15 15 14 14 14 14 14 13 13 13 13 13 13 13 13 13 13 13
15 15 15 15 15 15 15 15 15 15 15 15 15 15 15 15 15 15 15 15 15 15 15 15 15 15 14 14 14 14 13 13 13 13 13 13 13 13 13 13 12 12 12
15 15 15 15 15 15 15 15 15 15 15 15 15 15 15 15 15 15 15 15 15 15 15 14 14 14 14 14 13 13 13 13 13 13 13 13 12 12 12 12 12 12 12
14 14 14 14 14 15 15 15 15 15 15 15 15 15 14 14 14 15 14 14 14 14 14 14 14 14 13 13 13 13 13 12 12 12 12 12 12 12 12 12 12 12 12
14 14 14 14 14 14 14 14 14 14 14 14 14 14 14 14 14 14 14 14 14 14 14 14 13 13 13 13 13 12 12 12 12 12 12 12 12 11 11 11 11 11 11
14 14 14 14 14 14 14 14 14 14 14 14 14 14 14 14 14 14 14 14 14 14 14 13 13 13 13 12 12 12 12 12 11 11 11 11 11 11 11 11 11 11 11
14 14 14 14 14 14 14 14 14 14 14 14 14 14 13 13 13 14 14 14 13 13 13 13 13 12 12 12 12 12 11 11 11 11 11 11 11 11 11 10 10 11 11
14 14 14 14 14 13 13 13 13 13 13 13 13 13 13 13 13 13 13 13 13 13 13 13 12 12 12 12 12 11 11 11 11 11 11 11 11 11 10 10 10 10 10
13 13 13 13 13 13 13 13 13 13 13 13 13 13 13 13 13 13 13 13 13 13 12 12 12 12 11 11 11 11 11 11 10 10 10 10 10 10 10 10 10 10 10
13 13 13 13 13 13 13 13 13 13 13 13 13 13 13 13 13 13 13 12 12 12 12 12 11 11 11 11 11 11 11 10 10 10 10 10 10 10 10 9 9 9 9
13 13 13 13 13 13 13 13 13 13 13 13 13 13 13 13 12 12 12 12 12 12 12 11 11 11 11 11 11 11 10 10 10 9 9 9 9 9 9 9 9 8 8
13 13 13 13 13 13 12 12 12 12 12 12 12 12 12 12 12 12 12 12 12 11 11 11 11 10 10 10 10 10 10 10 9 9 9 9 9 8 8 8 8 8 8
13 13 12 12 12 12 12 12 12 12 12 12 12 12 12 12 12 12 12 11 11 11 11 11 10 10 10 10 10 10 10 9 9 9 9 8 8 8 8 8 8 8 7
12 12 12 12 12 12 12 12 11 11 11 12 12 11 11 11 11 11 11 11 11 11 10 10 10 10 9 9 9 9 9 9 8 8 8 8 8 8 7 7 7 7 7
12 12 12 12 12 12 12 12 11 11 11 11 11 11 11 11 11 11 11 11 10 10 10 10 10 9 9 9 8 8 7 8 8 8 8 8 7 7 7 7 6 6 6
11 12 12 12 12 11 11 11 11 11 10 10 11 11 11 11 11 10 10 10 10 10 10 10 9 9 9 8 8 7 7 7 7 7 7 7 7 7 6 6 6 6 6
11 11 11 11 11 11 11 11 11 11 11 11 11 10 10 10 10 10 10 10 10 9 9 9 9 8 8 8 7 7 7 7 6 6 6 6 6 6 6 6 6 6 5
10 11 11 11 11 11 11 11 11 10 10 10 10 10 10 10 10 10 10 9 9 9 9 8 8 8 8 8 7 7 7 6 6 5 5 6 6 6 6 6 5 5 5
10 10 10 10 10 10 10 10 10 10 10 10 10 10 10 10 9 9 9 9 9 8 8 8 8 8 7 7 7 7 6 6 6 5 5 5 5 5 5 5 5 5 4